DateTimeUTC,F1_A11,F1_S11,BsB_S11,BsG_S11,BsR_S11,BbsB_S11,BbsG_S11,BbsR_S11,BaB_A11,BaG_A11,BaR_A11,T_S11,U_S11,P_S11,T1_A11
2020-08-12T00:00:00Z,00000380,20000600,,,,,,,,,,24.6,05.2,0665.0,31.0
2020-08-12T00:01:00Z,00000380,20000600,,,,,,,,,,24.6,05.2,0665.0,30.9
2020-08-12T00:02:00Z,00000380,20000600,,,,,,,,,,24.6,05.2,0665.0,30.9
2020-08-12T00:03:00Z,00000380,60000600,,,,,,,,,,24.6,05.2,0665.0,30.9
2020-08-12T00:04:00Z,00000380,40000600,-000.19,0000.73,0000.29,-000.27,0000.25,0000.07,0000.09,0000.10,-000.02,24.4,05.0,0665.9,30.9
2020-08-12T00:05:00Z,00000380,00000600,-000.02,0001.03,0000.02,0000.76,0000.07,0000.28,-000.15,-000.03,-000.05,24.4,05.1,0666.1,31.0
2020-08-12T00:06:00Z,00000380,00000600,0000.93,0000.38,0000.14,0000.28,0000.04,0000.16,-000.03,0000.04,0000.15,24.4,05.2,0666.1,31.0
2020-08-12T00:07:00Z,00000380,00000600,0000.70,0001.06,0000.36,-000.42,-000.14,-000.43,0000.14,0000.07,-000.02,24.4,05.1,0666.1,31.0
2020-08-12T00:08:00Z,00000380,00000600,0000.50,0000.05,0000.48,0000.18,-000.12,0000.06,-000.14,0000.08,-000.06,24.4,05.1,0666.0,31.0
2020-08-12T00:09:00Z,00000380,00000600,0000.54,0000.68,0000.14,0001.01,0000.18,-000.48,0000.00,-000.06,0000.05,24.4,05.2,0666.1,31.0
2020-08-12T00:10:00Z,00000380,00000600,0002.50,0000.28,-000.01,-000.01,-000.60,0000.24,0000.06,0000.00,0000.04,24.4,05.2,0666.0,31.0
2020-08-12T00:11:00Z,00000380,00000600,-000.03,0000.61,0000.30,0000.62,0000.20,0000.26,-000.10,-000.06,-000.13,24.4,05.2,0666.1,31.0
2020-08-12T00:12:00Z,00000380,00000600,0000.96,0000.33,0000.30,0000.11,-000.34,0000.32,0000.08,0000.06,-000.01,24.3,05.1,0666.0,30.9
2020-08-12T00:13:00Z,00000380,00000600,0000.51,0000.43,0000.66,-000.19,-000.12,0000.25,-000.05,0000.03,0000.03,24.3,05.1,0666.1,30.9
2020-08-12T00:14:00Z,00000380,00000600,0000.13,0001.06,0000.49,-000.75,0000.17,0000.13,0000.01,-000.11,0000.01,24.3,05.0,0666.0,30.9
2020-08-12T00:15:00Z,00000380,00000600,0000.18,-000.02,0000.38,0000.76,0000.05,0000.24,-000.05,-000.03,0000.03,24.3,05.0,0666.0,30.9
2020-08-12T00:16:00Z,00000380,00000600,0000.15,0000.41,0000.06,-000.69,0000.08,0000.18,-000.02,-000.07,-000.07,24.3,05.1,0666.0,30.9
2020-08-12T00:17:00Z,00000380,00000600,-000.35,0000.96,-000.02,0000.47,0000.37,0000.30,0000.06,0000.14,0000.08,24.3,05.1,0665.9,30.9
2020-08-12T00:18:00Z,00000380,00000600,-000.84,0001.02,0000.16,-000.71,0000.17,-000.37,0000.10,-000.06,0000.05,24.3,05.1,0666.0,30.9
2020-08-12T00:19:00Z,00000380,00000600,0001.29,0000.72,0000.32,-000.12,-000.08,0000.39,-000.13,-000.06,-000.07,24.3,05.1,0666.0,30.9
2020-08-12T00:20:00Z,00000380,00000600,-000.01,0000.93,0001.04,-000.24,0000.14,0000.23,0000.08,-000.03,-000.13,24.2,05.1,0666.0,30.9
2020-08-12T00:21:00Z,00000380,00000600,0001.75,0000.46,0000.40,-000.55,-000.07,0000.10,-000.18,0000.03,0000.12,24.2,05.0,0666.0,31.0
2020-08-12T00:22:00Z,00000380,00000600,-000.03,0001.00,0000.38,0000.69,-000.26,0000.02,0000.09,0000.06,-000.03,24.2,05.0,0665.9,30.9
2020-08-12T00:23:00Z,00000380,00000600,0000.56,0001.17,-000.28,-000.01,-000.31,-000.10,-000.03,0000.08,-000.00,24.2,05.0,0665.9,30.9
2020-08-12T00:24:00Z,00000380,00000600,0001.88,0000.76,0000.27,0000.55,-000.23,0000.28,0000.17,0000.01,0000.10,24.2,05.0,0665.9,30.9
2020-08-12T00:25:00Z,00000380,00000600,0000.03,0000.49,0000.37,-000.10,0000.17,0000.17,0000.03,-000.11,0000.03,24.2,05.1,0665.9,30.9
2020-08-12T00:26:00Z,00000380,00000600,0002.07,0000.57,0000.32,-000.18,-000.01,0000.22,-000.01,0000.18,0000.09,24.2,05.1,0665.9,30.9
2020-08-12T00:27:00Z,00000380,00000600,0001.21,0000.51,0000.30,-000.09,0000.18,0000.22,-000.00,-000.16,0000.03,24.2,05.2,0665.8,30.9
2020-08-12T00:28:00Z,00000380,00000600,0000.84,0000.71,0000.01,-000.82,0000.14,-000.03,0000.24,0000.33,0000.05,24.2,05.2,0665.8,30.9
2020-08-12T00:29:00Z,00000380,00000600,0000.49,0000.93,0000.57,0000.19,-000.26,0000.49,0000.10,-000.16,-000.06,24.2,05.3,0665.8,30.9
2020-08-12T00:30:00Z,00000380,00000600,-000.72,0000.51,0000.28,-000.51,0000.07,0000.20,-000.10,0000.05,0000.02,24.2,05.4,0665.7,30.9
2020-08-12T00:31:00Z,00000380,00000600,0000.33,0000.20,0000.90,0000.84,0000.29,0000.34,0000.11,0000.10,0000.17,24.2,05.4,0665.7,30.9
2020-08-12T00:32:00Z,00000380,00000600,0001.07,0000.50,0000.66,0001.86,-000.09,0000.33,0000.08,0000.13,0000.08,24.2,05.4,0665.7,30.9
2020-08-12T00:33:00Z,00000380,00000600,0000.41,0000.58,0000.03,0000.53,0000.08,0000.04,-000.08,-000.01,-000.04,24.2,05.4,0665.7,30.9
2020-08-12T00:34:00Z,00000380,00000600,0000.59,0001.00,0000.06,-000.82,0000.16,0000.06,0000.16,-000.04,-000.07,24.1,05.4,0665.8,30.9
2020-08-12T00:35:00Z,00000380,00000600,0000.17,0000.69,0000.33,-000.29,-000.14,-000.11,0000.02,0000.04,0000.05,24.2,05.5,0665.8,30.9
2020-08-12T00:36:00Z,00000380,00000600,0000.40,0000.18,0000.09,-000.07,0000.08,-000.52,-000.05,0000.06,0000.15,24.2,05.5,0665.8,31.0
2020-08-12T00:37:00Z,00000380,00000600,0000.83,0000.84,0000.19,0000.39,0000.36,-000.17,0000.02,-000.08,-000.25,24.3,05.5,0665.8,31.0
2020-08-12T00:38:00Z,00000380,00000600,0000.76,0000.09,0000.56,0000.97,-000.04,-000.04,-000.07,0000.04,0000.18,24.2,05.4,0665.9,31.0
2020-08-12T00:39:00Z,00000380,00000600,-000.19,0001.32,0000.55,0000.45,-000.13,0000.01,0000.11,0000.02,-000.08,24.2,05.3,0665.8,31.0
2020-08-12T00:40:00Z,00000380,00000600,0000.12,0001.10,0000.37,0000.67,0000.12,0000.05,-000.02,0000.08,0000.02,24.2,05.3,0665.8,31.0
2020-08-12T00:41:00Z,00000380,00000600,0000.62,0000.61,-000.24,0000.30,0000.23,0000.21,0000.09,-000.07,0000.10,24.2,05.3,0665.8,31.0
2020-08-12T00:42:00Z,00000380,00000600,0001.45,0000.49,0000.20,-000.36,0000.18,-000.31,-000.03,-000.00,-000.07,24.2,05.3,0665.8,31.0
2020-08-12T00:43:00Z,00000380,00000600,0001.60,0000.62,0000.20,-000.09,0000.28,0000.54,-000.02,0000.10,-000.03,24.2,05.2,0665.8,30.9
2020-08-12T00:44:00Z,00000380,00000600,0000.86,0000.59,0000.58,-000.53,0000.41,0000.27,-000.14,-000.07,-000.00,24.2,05.2,0665.7,30.9
2020-08-12T00:45:00Z,00000380,00000600,0001.30,0000.55,0000.53,-000.28,0000.07,0000.24,0000.10,-000.12,0000.11,24.2,05.3,0665.7,30.9
2020-08-12T00:46:00Z,00000380,00000600,-000.20,0000.78,0000.38,0000.87,0000.00,0000.05,-000.02,-000.06,-000.13,24.2,05.2,0665.7,30.9
2020-08-12T00:47:00Z,00000380,00000600,0001.39,0000.78,0000.36,-000.30,0000.05,0000.12,-000.07,0000.17,0000.02,24.2,05.2,0665.7,30.9
2020-08-12T00:48:00Z,00000380,00000600,0001.14,-000.07,0000.10,-000.58,-000.12,-000.09,0000.11,-000.08,0000.11,24.2,05.1,0665.7,30.9
2020-08-12T00:49:00Z,00000380,00000600,0000.79,0000.71,0000.03,0000.19,0000.10,0000.23,0000.03,0000.03,0000.03,24.1,05.1,0665.7,30.9
2020-08-12T00:50:00Z,00000380,00000600,0001.19,0000.62,0000.34,0000.33,0000.35,0000.34,-000.04,0000.15,0000.01,24.2,05.2,0665.7,30.9
2020-08-12T00:51:00Z,00000380,00000600,0000.21,0001.07,0000.27,-000.11,0000.37,0000.37,0000.07,-000.04,0000.10,24.2,05.2,0665.7,31.0
2020-08-12T00:52:00Z,00000380,00000600,-000.33,0000.29,-000.05,0000.38,0000.03,0000.28,0000.02,0000.07,-000.12,24.2,05.2,0665.7,30.9
2020-08-12T00:53:00Z,00000380,00000600,0000.38,0001.21,0000.00,-000.41,0000.22,0000.02,-000.18,-000.22,-000.05,24.2,05.1,0665.7,31.0
2020-08-12T00:54:00Z,00000380,00000600,0000.65,0001.35,0000.10,-000.05,-000.13,-000.23,-000.06,-000.07,-000.09,24.2,05.1,0665.7,31.0
2020-08-12T00:55:00Z,00000380,00000600,0000.47,0000.35,0000.35,-000.24,-000.20,0000.26,0000.03,0000.02,0000.06,24.2,05.0,0665.7,31.0
2020-08-12T00:56:00Z,00000380,00000600,0001.79,0000.52,-000.09,-000.53,-000.26,0000.44,0000.11,0000.17,0000.13,24.2,05.0,0665.6,31.0
2020-08-12T00:57:00Z,00000380,40000600,,,,,,,,,,24.2,05.0,0665.6,30.9
2020-08-12T00:58:00Z,00000380,60000600,,,,,,,,,,24.3,04.9,0664.6,30.9
2020-08-12T00:59:00Z,00000380,20000600,,,,,,,,,,24.4,04.8,0664.6,30.9
2020-08-12T01:00:00Z,00000380,20000600,,,,,,,,,,24.4,04.8,0664.6,30.9
2020-08-12T01:01:00Z,00000380,20000600,,,,,,,,,,24.4,04.8,0664.6,30.9
2020-08-12T01:02:00Z,00000380,20000600,,,,,,,,,,24.4,04.8,0664.5,30.9
2020-08-12T01:03:00Z,00000380,60000600,,,,,,,,,,24.4,04.8,0664.5,30.9
2020-08-12T01:04:00Z,00000380,40000600,0000.87,0000.10,0000.15,0000.31,0000.18,-000.01,0000.02,0000.12,0000.10,24.2,04.7,0665.5,30.9
2020-08-12T01:05:00Z,00000380,00000600,0000.51,0000.51,0000.03,0000.97,0000.29,0000.04,0000.04,0000.16,-000.04,24.2,04.7,0665.6,31.0
2020-08-12T01:06:00Z,00000380,00000600,0000.66,0000.97,0000.33,0000.57,0000.66,0000.11,-000.12,-000.15,0000.07,24.2,04.6,0665.6,30.9
2020-08-12T01:07:00Z,00000380,00000600,0001.04,0000.47,0000.75,0000.40,0000.52,0000.19,-000.03,0000.02,-000.03,24.2,04.6,0665.6,30.9
2020-08-12T01:08:00Z,00000380,00000600,0000.09,0000.98,0000.98,0000.23,0000.51,0000.41,-000.01,0000.01,0000.02,24.2,04.6,0665.6,30.9
2020-08-12T01:09:00Z,00000380,00000600,0000.29,0000.07,0000.02,-000.72,0000.45,0000.34,-000.10,-000.08,-000.11,24.2,04.5,0665.5,30.9
2020-08-12T01:10:00Z,00000380,00000600,0000.32,0001.39,0000.02,0000.40,0000.42,-000.02,-000.09,-000.03,-000.04,24.1,04.6,0665.5,30.9
2020-08-12T01:11:00Z,00000380,00000600,0001.21,0000.46,0000.30,0001.00,0000.37,0000.18,0000.17,-000.15,0000.06,24.1,04.6,0665.4,30.9
2020-08-12T01:12:00Z,00000380,00000600,0000.46,0000.02,0000.34,-000.19,0000.15,0000.12,-000.06,0000.17,-000.14,24.2,04.7,0665.4,30.9
2020-08-12T01:13:00Z,00000380,00000600,0000.60,0001.26,0000.31,-000.10,0000.24,0000.01,0000.02,-000.04,0000.18,24.1,04.5,0665.4,30.9
2020-08-12T01:14:00Z,00000380,00000600,0000.92,0000.55,0000.42,0000.37,0000.14,-000.15,0000.06,0000.00,-000.10,24.1,04.6,0665.4,30.9
2020-08-12T01:15:00Z,00000380,00000600,-000.21,-000.07,0001.04,0000.15,0000.32,0000.29,0000.05,0000.06,0000.12,24.1,04.7,0665.3,30.9
2020-08-12T01:16:00Z,00000380,00000600,0000.09,0000.08,0000.18,-000.24,0000.24,0000.47,-000.06,0000.09,0000.15,24.1,04.7,0665.3,30.9
2020-08-12T01:17:00Z,00000380,00000600,0000.18,0000.90,-000.02,0000.13,0000.31,-000.30,0000.23,-000.07,-000.24,24.1,04.7,0665.3,30.9
2020-08-12T01:18:00Z,00000380,00000600,0000.67,0000.64,-000.11,0000.05,0000.04,0000.13,-000.08,-000.05,0000.04,24.1,04.7,0665.3,30.9
2020-08-12T01:19:00Z,00000380,00000600,0001.42,0000.74,0000.30,0000.29,0000.69,0000.19,0000.04,0000.17,0000.17,24.1,04.8,0665.3,30.9
2020-08-12T01:20:00Z,00000380,00000600,0000.59,0000.55,-000.13,0000.29,0000.35,-000.11,-000.03,-000.01,-000.08,24.1,04.8,0665.3,30.9
2020-08-12T01:21:00Z,00000380,00000600,0000.56,0000.13,-000.12,-000.48,0000.02,-000.16,-000.02,0000.06,0000.10,24.2,04.9,0665.3,31.0
2020-08-12T01:22:00Z,00000380,00000600,-000.25,0000.22,0000.34,-000.44,0000.55,-000.13,-000.01,0000.10,0000.03,24.2,04.8,0665.3,31.0
2020-08-12T01:23:00Z,00000380,00000600,0001.06,0000.50,0000.09,0000.48,0000.22,0000.09,0000.01,-000.13,-000.14,24.2,04.8,0665.3,31.0
2020-08-12T01:24:00Z,00000380,00000600,0000.63,0000.76,0000.42,0000.11,0000.30,-000.00,0000.08,0000.01,0000.02,24.2,04.8,0665.3,31.0
2020-08-12T01:25:00Z,00000380,00000600,0001.36,0000.67,-000.08,-000.73,0000.61,-000.31,-000.17,-000.03,-000.02,24.2,04.8,0665.2,31.0
2020-08-12T01:26:00Z,00000380,00000600,0000.90,0000.00,0000.35,0000.01,0000.21,0000.25,0000.15,0000.12,0000.23,24.2,04.8,0665.2,31.0
2020-08-12T01:27:00Z,00000380,00000600,0000.25,0000.48,0000.22,-000.61,0000.29,0000.13,-000.00,-000.03,-000.11,24.1,04.7,0665.2,30.9
2020-08-12T01:28:00Z,00000380,00000600,0000.16,0001.23,0000.84,-000.12,0000.48,-000.20,-000.00,-000.17,0000.00,24.1,04.9,0665.2,30.9
2020-08-12T01:29:00Z,00000380,00000600,0000.60,0000.30,0000.20,0000.04,0000.48,0000.25,-000.04,0000.05,-000.01,24.1,04.8,0665.2,30.9
2020-08-12T01:30:00Z,00000380,00000600,0000.60,0000.91,0000.81,-000.20,0000.22,-000.16,-000.06,0000.02,-000.09,24.1,04.7,0665.2,30.9
2020-08-12T01:31:00Z,00000380,00000600,0000.48,0000.52,-000.06,-000.34,0000.29,0000.01,-000.05,0000.03,0000.08,24.1,04.8,0665.2,30.9
2020-08-12T01:32:00Z,00000380,00000600,0001.89,0000.95,0000.46,0000.47,0000.11,0000.29,0000.10,0000.07,0000.09,24.1,04.7,0665.2,30.9
2020-08-12T01:33:00Z,00000380,00000600,0000.81,0000.50,0000.73,0000.97,0000.21,0000.16,-000.06,-000.19,-000.10,24.1,04.7,0665.1,30.9
2020-08-12T01:34:00Z,00000380,00000600,0000.49,0000.41,0000.76,0000.14,0000.12,-000.11,0000.10,0000.16,0000.00,24.1,04.7,0665.2,30.9
2020-08-12T01:35:00Z,00000380,00000600,0000.74,0000.37,0000.05,0000.16,0000.12,0000.28,0000.05,-000.13,0000.13,24.1,04.8,0665.2,30.9
2020-08-12T01:36:00Z,00000380,00000600,-000.05,0000.85,0000.42,0000.41,0000.28,-000.13,-000.08,0000.01,0000.02,24.1,04.7,0665.2,31.0
2020-08-12T01:37:00Z,00000380,00000600,0001.79,0000.43,0000.32,0000.37,0000.07,0000.05,0000.04,0000.00,-000.00,24.1,04.6,0665.3,31.0
2020-08-12T01:38:00Z,00000380,00000600,0000.67,0000.40,0000.95,-000.00,0000.53,0000.71,-000.00,-000.01,-000.08,24.1,04.6,0665.3,31.0
2020-08-12T01:39:00Z,00000380,00000600,0001.49,0000.59,0000.33,-000.14,0000.49,0000.01,-000.12,0000.07,0000.04,24.1,04.5,0665.3,30.9
2020-08-12T01:40:00Z,00000380,00000600,0000.43,0000.22,0000.38,0000.19,0000.29,0000.24,0000.08,-000.11,-000.16,24.1,04.4,0665.2,30.9
2020-08-12T01:41:00Z,00000380,00000600,0001.28,0000.29,0000.53,-000.17,0000.38,-000.21,-000.04,-000.03,0000.02,24.1,04.5,0665.2,30.9
2020-08-12T01:42:00Z,00000380,00000600,0000.47,0000.89,-000.15,0000.09,0000.28,0000.09,-000.04,0000.03,0000.03,24.1,04.4,0665.2,30.9
2020-08-12T01:43:00Z,00000380,00000600,0000.90,0000.46,0000.35,0000.15,0000.35,0000.10,-000.11,0000.10,-000.08,24.1,04.4,0665.2,30.9
2020-08-12T01:44:00Z,00000380,00000600,0000.38,0000.96,0000.33,-000.72,0000.58,-000.12,-000.03,-000.18,0000.11,24.1,04.4,0665.2,30.9
2020-08-12T01:45:00Z,00000380,00000600,0000.73,0000.28,0000.48,0000.53,0000.44,0000.38,0000.00,0000.11,-000.14,24.1,04.3,0665.2,30.9
2020-08-12T01:46:00Z,00000380,00000600,0001.35,0000.69,0000.38,0000.97,0000.61,-000.20,0000.03,-000.12,0000.07,24.1,04.4,0665.2,30.9
2020-08-12T01:47:00Z,00000380,00000600,0001.07,0000.50,0000.13,0000.44,0000.40,0000.08,-000.09,-000.02,-000.08,24.1,04.3,0665.2,30.9
2020-08-12T01:48:00Z,00000380,00000600,0001.59,0000.80,0000.26,0000.27,0000.45,0000.61,0000.16,0000.07,0000.16,24.1,04.3,0665.2,30.9
2020-08-12T01:49:00Z,00000380,00000600,0001.66,0000.80,0000.17,-000.33,0000.15,-000.02,-000.10,-000.02,-000.03,24.0,04.3,0665.2,30.9
2020-08-12T01:50:00Z,00000380,00000600,0001.61,0000.65,0000.38,0000.61,-000.15,-000.02,-000.02,0000.04,0000.11,24.1,04.3,0665.2,30.9
2020-08-12T01:51:00Z,00000380,00000600,0001.30,0000.77,0000.13,0000.77,0000.08,-000.38,0000.18,-000.11,-000.01,24.0,04.2,0665.2,30.9
2020-08-12T01:52:00Z,00000380,00000600,0000.47,0000.76,0000.56,0000.59,0000.41,-000.06,-000.20,0000.20,-000.07,24.0,04.3,0665.2,30.9
2020-08-12T01:53:00Z,00000380,00000600,0001.26,0000.57,0000.13,0000.13,0000.04,-000.09,0000.07,-000.07,0000.04,24.0,04.2,0665.2,30.9
2020-08-12T01:54:00Z,00000380,00000600,0000.55,0000.57,0000.40,0000.64,0000.22,-000.03,0000.07,-000.03,0000.02,24.0,04.2,0665.2,30.9
2020-08-12T01:55:00Z,00000380,00000600,0001.23,0000.30,0000.06,-000.68,-000.05,-000.03,0000.01,0000.13,-000.03,24.0,04.2,0665.2,30.9
2020-08-12T01:56:00Z,00000380,00000600,0001.17,0000.63,0000.64,0000.48,0000.62,-000.06,0000.03,-000.08,0000.18,24.0,04.2,0665.2,30.9
2020-08-12T01:57:00Z,00000380,40000600,,,,,,,,,,24.0,04.3,0665.2,30.9
2020-08-12T01:58:00Z,00000380,60000600,,,,,,,,,,24.1,04.3,0664.2,30.9
2020-08-12T01:59:00Z,00000380,20000600,,,,,,,,,,24.2,04.3,0664.1,30.9
2020-08-12T02:00:00Z,00000380,20000600,,,,,,,,,,24.2,04.2,0664.1,30.9
2020-08-12T02:01:00Z,00000380,20000600,,,,,,,,,,24.2,04.1,0664.1,30.9
2020-08-12T02:02:00Z,00000380,20000600,,,,,,,,,,24.2,04.1,0664.1,30.9
2020-08-12T02:03:00Z,00000380,60000600,,,,,,,,,,24.2,04.1,0664.1,30.9
2020-08-12T02:04:00Z,00000380,40000600,0000.59,0000.19,0000.46,0000.10,0000.13,0000.02,0000.04,0000.16,-000.05,24.0,04.1,0665.1,30.9
2020-08-12T02:05:00Z,00000380,00000600,0001.06,0000.46,0000.45,0000.00,-000.20,0000.07,0000.15,-000.01,0000.10,24.0,04.2,0665.2,30.9
2020-08-12T02:06:00Z,00000380,00000600,0001.14,0000.78,0000.99,0000.73,0000.33,0000.19,-000.01,0000.08,0000.01,24.0,04.2,0665.2,30.9
2020-08-12T02:07:00Z,00000380,00000600,0001.74,0000.32,0000.57,0000.54,0000.44,-000.04,-000.05,0000.05,0000.13,24.0,04.2,0665.2,30.9
2020-08-12T02:08:00Z,00000380,00000600,0000.97,0000.91,0000.65,0000.08,0000.35,-000.01,-000.00,-000.04,0000.00,24.0,04.2,0665.2,30.9
2020-08-12T02:09:00Z,00000380,00000600,0000.97,0000.98,0000.86,0000.37,-000.09,0000.02,0000.11,0000.07,-000.08,24.0,04.2,0665.2,30.9
2020-08-12T02:10:00Z,00000380,00000600,0001.43,0000.55,0000.41,0000.66,-000.03,-000.14,-000.01,-000.06,0000.06,24.0,04.1,0665.1,30.9
2020-08-12T02:11:00Z,00000380,00000600,0001.40,0000.88,0000.49,0000.73,0000.47,0000.20,0000.05,0000.18,-000.02,24.0,04.2,0665.1,30.9
2020-08-12T02:12:00Z,00000380,00000600,0001.48,0000.65,0000.51,0001.14,0000.58,0000.30,-000.07,-000.23,-000.02,24.0,04.2,0665.1,30.9
2020-08-12T02:13:00Z,00000380,00000600,0001.70,0000.52,0000.20,-000.37,0000.44,0000.01,0000.03,0000.12,0000.09,24.0,04.1,0665.1,30.9
2020-08-12T02:14:00Z,00000380,00000600,0000.55,0000.45,0000.60,0000.35,0000.07,0000.24,-000.11,-000.09,-000.11,23.9,04.1,0665.1,30.9
2020-08-12T02:15:00Z,00000380,00000600,0001.73,0000.62,0000.60,0000.12,0000.49,0000.09,-000.19,-000.09,0000.06,23.9,04.0,0665.0,30.9
2020-08-12T02:16:00Z,00000380,00000600,0001.96,0000.45,0000.58,0000.13,0000.38,-000.10,0000.08,0000.02,-000.09,23.9,03.9,0665.0,30.9
2020-08-12T02:17:00Z,00000380,00000600,0001.11,0000.65,0000.80,-000.73,0000.20,0000.06,-000.06,0000.03,0000.01,23.9,03.8,0665.0,30.9
2020-08-12T02:18:00Z,00000380,00000600,-000.30,0000.88,0000.64,0000.19,0000.58,0000.09,-000.09,-000.06,-000.10,23.9,03.8,0665.0,30.9
2020-08-12T02:19:00Z,00000380,00000600,0001.01,0001.03,0000.27,0000.50,0000.39,-000.08,-000.00,-000.04,0000.07,23.9,03.7,0665.0,30.9
2020-08-12T02:20:00Z,00000380,00000600,0001.94,0000.29,0000.61,0000.14,0000.16,0000.15,-000.11,0000.01,0000.07,23.9,03.7,0665.0,30.9
2020-08-12T02:21:00Z,00000380,00000600,0001.63,0000.87,0000.22,0000.80,0000.14,-000.16,0000.11,-000.01,-000.17,23.9,03.6,0665.0,30.9
2020-08-12T02:22:00Z,00000380,00000600,0000.72,0000.42,0000.72,0001.30,0000.18,0000.23,-000.10,-000.24,-000.05,23.9,03.6,0665.0,30.9
2020-08-12T02:23:00Z,00000380,00000600,0000.76,0000.84,0000.65,0000.33,0000.04,0000.50,-000.19,0000.03,0000.05,23.9,03.5,0665.0,30.9
2020-08-12T02:24:00Z,00000380,00000600,0002.17,0000.75,0000.48,0000.14,0000.33,-000.25,0000.06,-000.01,-000.04,23.9,03.4,0665.0,30.9
2020-08-12T02:25:00Z,00000380,00000600,0002.01,0000.84,0000.92,-000.15,0000.70,0000.02,-000.11,-000.07,-000.10,23.9,03.4,0665.0,30.9
2020-08-12T02:26:00Z,00000380,00000600,0001.14,0000.30,0000.24,0000.73,0000.20,0000.07,0000.02,0000.13,-000.03,23.9,03.4,0665.0,30.9
2020-08-12T02:27:00Z,00000380,00000600,0001.03,0000.40,0000.80,0000.43,-000.14,-000.05,0000.02,-000.12,0000.09,23.9,03.4,0665.0,30.9
2020-08-12T02:28:00Z,00000380,00000600,0001.17,0000.72,0000.50,0000.40,0000.25,-000.26,0000.00,0000.08,0000.07,23.9,03.3,0665.0,30.9
2020-08-12T02:29:00Z,00000380,00000600,0000.33,0000.66,0000.76,0000.29,0000.27,-000.37,0000.11,0000.11,0000.02,23.9,03.4,0664.9,30.9
2020-08-12T02:30:00Z,00000380,00000600,0001.89,0000.20,0000.49,0000.07,0000.35,-000.18,-000.08,-000.08,-000.01,23.8,03.4,0664.9,30.9
2020-08-12T02:31:00Z,00000380,00000600,0001.30,0001.34,0001.03,0000.18,0000.28,0000.12,0000.05,-000.15,-000.09,23.9,03.3,0664.9,30.9
2020-08-12T02:32:00Z,00000380,00000600,0002.08,0000.94,0000.68,-000.86,0000.22,0000.31,-000.02,0000.17,0000.04,23.8,03.3,0664.9,30.9
2020-08-12T02:33:00Z,00000380,00000600,0001.68,0001.03,0000.77,0000.82,0000.51,0000.31,-000.02,-000.07,0000.09,23.8,03.3,0664.9,30.9
2020-08-12T02:34:00Z,00000380,00000600,0001.50,0001.07,0000.33,0000.43,0000.27,0000.58,0000.04,0000.01,-000.07,23.8,03.3,0664.9,30.9
2020-08-12T02:35:00Z,00000380,00000600,0000.92,0000.88,0000.76,-000.21,0000.24,-000.40,-000.02,0000.00,-000.02,23.9,03.3,0664.9,30.9
2020-08-12T02:36:00Z,00000380,00000600,0001.60,0000.50,0000.51,-000.10,0000.18,0000.19,-000.03,0000.18,0000.14,23.9,03.3,0664.9,30.9
2020-08-12T02:37:00Z,00000380,00000600,0001.48,0000.46,0000.56,-000.19,0000.17,-000.28,0000.01,-000.20,-000.02,23.9,03.1,0664.9,30.9
2020-08-12T02:38:00Z,00000380,00000600,0001.80,0000.42,0000.60,0000.81,0000.40,-000.25,-000.07,0000.15,-000.02,23.9,03.2,0664.9,30.9
2020-08-12T02:39:00Z,00000380,00000600,0001.29,0000.39,0000.73,0000.59,-000.15,-000.11,-000.05,-000.06,0000.09,23.9,03.2,0664.9,30.9
2020-08-12T02:40:00Z,00000380,00000600,0001.09,0000.83,0000.45,-000.12,0000.49,0000.04,-000.00,-000.05,-000.10,23.9,03.2,0664.9,30.9
2020-08-12T02:41:00Z,00000380,00000600,0001.10,0000.50,0000.79,0000.75,-000.20,-000.16,0000.10,0000.00,-000.02,23.9,03.2,0664.8,30.9
2020-08-12T02:42:00Z,00000380,00000600,-000.01,0000.70,0000.69,0000.85,0000.39,0000.19,0000.06,0000.25,-000.00,23.8,03.2,0664.8,30.9
2020-08-12T02:43:00Z,00000380,00000600,0001.33,0001.02,0000.51,0000.69,0000.12,0000.18,-000.05,-000.12,0000.06,23.8,03.2,0664.8,30.9
2020-08-12T02:44:00Z,00000380,00000600,0002.29,0000.43,0000.90,0001.37,0000.43,-000.16,0000.06,-000.07,0000.03,23.8,03.1,0664.8,30.9
2020-08-12T02:45:00Z,00000380,00000600,0001.15,0001.02,0001.08,0000.11,0000.14,0000.25,-000.06,-000.06,-000.00,23.8,03.1,0664.8,30.9
2020-08-12T02:46:00Z,00000380,00000600,0001.62,0001.24,0000.33,0000.68,0000.32,0000.05,-000.06,-000.00,-000.01,23.8,03.1,0664.8,30.9
2020-08-12T02:47:00Z,00000380,00000600,0002.47,0000.59,0000.57,0000.85,0000.18,-000.20,-000.01,0000.05,0000.01,23.8,03.1,0664.8,30.9
2020-08-12T02:48:00Z,00000380,00000600,0000.82,0001.06,0000.54,0000.98,0000.38,0000.20,-000.09,0000.05,-000.08,23.8,03.1,0664.7,30.9
2020-08-12T02:49:00Z,00000380,00000600,0001.47,0000.52,0000.48,-000.43,0000.50,0000.17,0000.13,0000.04,0000.11,23.8,03.0,0664.8,30.9
2020-08-12T02:50:00Z,00000380,00000600,0000.92,0001.00,0000.89,0000.29,0000.16,0000.11,-000.02,0000.06,-000.01,23.8,03.1,0664.8,30.9
2020-08-12T02:51:00Z,00000380,00000600,0001.18,0000.66,0000.21,0000.66,0000.06,0000.25,0000.01,-000.07,0000.00,23.8,03.0,0664.8,30.9
2020-08-12T02:52:00Z,00000380,00000600,0001.65,0001.02,0000.42,0000.67,-000.01,-000.06,-000.05,-000.00,-000.00,23.8,03.1,0664.8,30.9
2020-08-12T02:53:00Z,00000380,00000600,0001.36,0000.59,0000.72,0000.07,-000.32,0000.02,0000.07,-000.05,-000.00,23.8,03.1,0664.8,30.9
2020-08-12T02:54:00Z,00000380,00000600,0001.36,0000.70,0000.47,-000.14,0000.48,0000.48,0000.09,0000.19,0000.05,23.8,03.0,0664.8,30.9
2020-08-12T02:55:00Z,00000380,00000600,0000.90,0000.39,0000.56,0000.76,0000.25,-000.26,-000.02,0000.02,-000.02,23.8,03.0,0664.8,30.9
2020-08-12T02:56:00Z,00000380,00000600,0002.18,0000.85,0000.42,0000.53,0000.23,0000.05,0000.11,-000.02,0000.04,23.8,03.0,0664.7,30.9
2020-08-12T02:57:00Z,00000380,40000600,,,,,,,,,,23.8,03.0,0664.8,30.9
2020-08-12T02:58:00Z,00000380,60000600,,,,,,,,,,23.9,03.2,0663.7,30.9
2020-08-12T02:59:00Z,00000380,20000600,,,,,,,,,,24.0,03.2,0663.7,30.9
2020-08-12T03:00:00Z,00000380,20000600,,,,,,,,,,24.0,03.1,0663.7,30.9
2020-08-12T03:01:00Z,00000380,20000600,,,,,,,,,,24.0,03.0,0663.7,30.9
2020-08-12T03:02:00Z,00000380,20000600,,,,,,,,,,24.0,03.0,0663.7,30.9
2020-08-12T03:03:00Z,00000380,60000600,,,,,,,,,,24.0,03.0,0663.7,30.9
2020-08-12T03:04:00Z,00000380,40000600,0000.43,0000.71,0000.07,0000.28,0000.39,0000.06,-000.01,0000.14,0000.04,23.9,03.0,0664.7,30.9
2020-08-12T03:05:00Z,00000380,00000600,0001.39,0000.65,0000.38,-000.08,0000.12,0000.13,0000.06,0000.02,0000.12,23.8,03.1,0664.8,30.9
2020-08-12T03:06:00Z,00000380,00000600,0001.45,0001.07,-000.13,0000.23,0000.53,-000.03,-000.05,-000.02,-000.11,23.8,03.1,0664.8,30.9
2020-08-12T03:07:00Z,00000380,00000600,0000.64,0000.98,0000.03,0000.16,0000.46,0000.22,0000.11,0000.04,0000.05,23.8,03.1,0664.8,30.9
2020-08-12T03:08:00Z,00000380,00000600,0001.22,0000.65,-000.03,0000.54,0000.13,-000.23,-000.03,-000.04,0000.01,23.8,03.1,0664.8,30.9
2020-08-12T03:09:00Z,00000380,00000600,0001.77,0001.14,-000.14,0000.14,-000.29,0000.22,0000.08,0000.03,-000.02,23.8,03.1,0664.8,30.9
2020-08-12T03:10:00Z,00000380,00000600,0000.66,0000.59,0000.09,0000.38,-000.13,-000.01,0000.05,0000.10,0000.13,23.8,03.1,0664.7,30.9